When you browse on this site, cookies collect data to enhance your experience and personalize the content and advertising you see.
Visit our Privacy Policy to learn more. By continuing to use the site, you agree to this use of cookies and data.
  • En España
  • Lista de países
  • Para 7 días
  • Temperatura del agua
  • Mapa Satelital
  • El tiempo en el mapa
  • Informadores
  • user-avatar
    Iniciar sesión

    Tiempo cada hora Potosi

    Hoy, 21 Enero, Lunes

    Tiempo Temperatura Precipitaciones Viento Presión Humedad
    00:00 +9°C° 0 mm 2 mps 468 mmHg 75%
    01:00 +8°C° 0 mm 2 mps 468 mmHg 79%
    02:00 +8°C° 0 mm 2 mps 468 mmHg 82%
    03:00 +9°C° 0 mm 1 mps 468 mmHg 83%
    04:00 +9°C° 0 mm 1 mps 468 mmHg 84%
    05:00 +8°C° 0 mm 1 mps 468 mmHg 85%
    06:00 +9°C° 0 mm 1 mps 468 mmHg 80%
    07:00 +9°C° 0 mm 1 mps 468 mmHg 76%
    08:00 +9°C° 0 mm 0 mps 469 mmHg 72%
    09:00 +11°C° 0 mm 1 mps 470 mmHg 60%
    10:00 +13°C° 0 mm 2 mps 471 mmHg 48%
    11:00 +15°C° 0 mm 2 mps 472 mmHg 36%
    12:00 +16°C° 0 mm 3 mps 472 mmHg 31%
    13:00 +17°C° 0 mm 4 mps 472 mmHg 26%
    14:00 +17°C° 0 mm 6 mps 472 mmHg 22%
    15:00 +17°C° 0 mm 6 mps 472 mmHg 24%
    16:00 +16°C° 0 mm 7 mps 471 mmHg 27%
    17:00 +16°C° 0 mm 8 mps 471 mmHg 29%
    18:00 +14°C° 0 mm 7 mps 470 mmHg 39%
    19:00 +11°C° 0 mm 6 mps 470 mmHg 49%
    20:00 +10°C° 0 mm 5 mps 469 mmHg 59%
    21:00 +10°C° 0.1 mm 4 mps 469 mmHg 64%
    22:00 +10°C° 0.1 mm 3 mps 469 mmHg 69%
    23:00 +9°C° 0.1 mm 2 mps 470 mmHg 74%

    Mañana, 22 Enero, Martes

    Tiempo Temperatura Precipitaciones Viento Presión Humedad
    00:00 +9°C° 0.1 mm 2 mps 469 mmHg 76%
    01:00 +8°C° 0.1 mm 2 mps 469 mmHg 78%
    02:00 +8°C° 0.1 mm 2 mps 469 mmHg 80%
    03:00 +8°C° 0 mm 2 mps 469 mmHg 81%
    04:00 +9°C° 0 mm 1 mps 468 mmHg 81%
    05:00 +8°C° 0 mm 1 mps 468 mmHg 82%
    06:00 +9°C° 0 mm 1 mps 469 mmHg 79%
    07:00 +9°C° 0 mm 1 mps 469 mmHg 76%
    08:00 +9°C° 0 mm 1 mps 470 mmHg 74%
    09:00 +10°C° 0 mm 2 mps 471 mmHg 62%
    10:00 +12°C° 0 mm 3 mps 471 mmHg 50%
    11:00 +13°C° 0 mm 3 mps 472 mmHg 38%
    12:00 +14°C° 0 mm 4 mps 472 mmHg 35%
    13:00 +15°C° 0 mm 5 mps 472 mmHg 33%
    14:00 +16°C° 0 mm 6 mps 472 mmHg 31%
    15:00 +16°C° 0 mm 7 mps 472 mmHg 34%
    16:00 +15°C° 0 mm 7 mps 471 mmHg 38%
    17:00 +15°C° 0 mm 7 mps 470 mmHg 42%
    18:00 +12°C° 0 mm 7 mps 470 mmHg 48%
    19:00 +11°C° 0 mm 6 mps 469 mmHg 54%
    20:00 +9°C° 0 mm 5 mps 469 mmHg 60%
    21:00 +10°C° 0 mm 4 mps 469 mmHg 63%
    22:00 +9°C° 0 mm 3 mps 469 mmHg 65%
    23:00 +9°C° 0 mm 2 mps 470 mmHg 68%

    Pasado mañana, 23 Enero, Miércoles

    Tiempo Temperatura Precipitaciones Viento Presión Humedad
    00:00 +9°C° 0 mm 2 mps 469 mmHg 71%
    01:00 +9°C° 0 mm 1 mps 469 mmHg 74%
    02:00 +9°C° 0 mm 1 mps 468 mmHg 77%
    03:00 +8°C° 0 mm 1 mps 468 mmHg 78%
    04:00 +8°C° 0 mm 1 mps 468 mmHg 79%
    05:00 +7°C° 0 mm 0 mps 468 mmHg 80%
    06:00 +8°C° 0 mm 0 mps 468 mmHg 74%
    07:00 +8°C° 0 mm 0 mps 469 mmHg 68%
    08:00 +9°C° 0 mm 0 mps 470 mmHg 62%
    09:00 +12°C° 0 mm 2 mps 471 mmHg 54%
    10:00 +12°C° 0 mm 3 mps 472 mmHg 45%
    11:00 +14°C° 0 mm 5 mps 473 mmHg 36%
    12:00 +15°C° 0 mm 6 mps 473 mmHg 35%
    13:00 +16°C° 0 mm 7 mps 473 mmHg 34%
    14:00 +17°C° 0 mm 8 mps 473 mmHg 33%
    15:00 +16°C° 0.2 mm 8 mps 472 mmHg 37%
    16:00 +15°C° 0.2 mm 8 mps 471 mmHg 41%
    17:00 +15°C° 0.2 mm 8 mps 471 mmHg 45%
    18:00 +12°C° 0.1 mm 7 mps 470 mmHg 50%
    19:00 +11°C° 0.1 mm 6 mps 470 mmHg 56%
    20:00 +10°C° 0.1 mm 5 mps 470 mmHg 62%
    21:00 +9°C° 0 mm 5 mps 470 mmHg 66%
    22:00 +10°C° 0 mm 4 mps 470 mmHg 71%
    23:00 +9°C° 0 mm 3 mps 470 mmHg 76%

    24 Enero, Jueves

    Tiempo Temperatura Precipitaciones Viento Presión Humedad
    00:00 +9°C° 0 mm 2 mps 469 mmHg 78%
    01:00 +8°C° 0 mm 2 mps 469 mmHg 80%
    02:00 +9°C° 0 mm 1 mps 468 mmHg 81%
    03:00 +8°C° 0 mm 1 mps 468 mmHg 82%
    04:00 +8°C° 0 mm 1 mps 468 mmHg 83%
    05:00 +7°C° 0 mm 0 mps 468 mmHg 84%
    06:00 +7°C° 0 mm 0 mps 469 mmHg 78%
    07:00 +8°C° 0 mm 0 mps 469 mmHg 71%
    08:00 +9°C° 0 mm 1 mps 470 mmHg 64%
    09:00 +10°C° 0 mm 2 mps 471 mmHg 53%
    10:00 +12°C° 0 mm 3 mps 472 mmHg 43%
    11:00 +14°C° 0 mm 4 mps 473 mmHg 32%
    12:00 +15°C° 0 mm 5 mps 473 mmHg 31%
    13:00 +16°C° 0 mm 6 mps 473 mmHg 30%
    14:00 +16°C° 0 mm 7 mps 473 mmHg 28%
    15:00 +16°C° 0 mm 7 mps 472 mmHg 31%
    16:00 +16°C° 0 mm 7 mps 472 mmHg 34%
    17:00 +15°C° 0 mm 8 mps 471 mmHg 36%
    18:00 +14°C° 0 mm 7 mps 470 mmHg 41%
    19:00 +13°C° 0 mm 6 mps 470 mmHg 45%
    20:00 +10°C° 0 mm 6 mps 469 mmHg 49%
    21:00 +10°C° 0 mm 5 mps 469 mmHg 53%
    22:00 +10°C° 0 mm 4 mps 469 mmHg 57%
    23:00 +9°C° 0 mm 3 mps 469 mmHg 60%

    25 Enero, Viernes

    Tiempo Temperatura Precipitaciones Viento Presión Humedad
    00:00 +9°C° 0 mm 2 mps 469 mmHg 62%
    01:00 +9°C° 0 mm 2 mps 468 mmHg 64%
    02:00 +9°C° 0 mm 1 mps 468 mmHg 66%
    03:00 +9°C° 0 mm 1 mps 468 mmHg 66%
    04:00 +8°C° 0 mm 1 mps 467 mmHg 67%
    05:00 +8°C° 0 mm 1 mps 467 mmHg 68%
    06:00 +9°C° 0 mm 1 mps 468 mmHg 63%
    07:00 +10°C° 0 mm 1 mps 469 mmHg 58%
    08:00 +10°C° 0 mm 1 mps 469 mmHg 52%
    09:00 +12°C° 0 mm 2 mps 470 mmHg 45%
    10:00 +13°C° 0 mm 2 mps 471 mmHg 37%
    11:00 +14°C° 0 mm 3 mps 472 mmHg 30%
    12:00 +16°C° 0 mm 3 mps 472 mmHg 27%
    13:00 +17°C° 0 mm 3 mps 472 mmHg 25%
    14:00 +18°C° 0 mm 3 mps 472 mmHg 22%
    15:00 +18°C° 0 mm 4 mps 471 mmHg 24%
    16:00 +17°C° 0 mm 5 mps 471 mmHg 25%
    17:00 +17°C° 0 mm 7 mps 470 mmHg 27%
    18:00 +16°C° 0 mm 6 mps 470 mmHg 31%
    19:00 +14°C° 0 mm 5 mps 469 mmHg 34%
    20:00 +13°C° 0 mm 4 mps 469 mmHg 38%
    21:00 +12°C° 0 mm 3 mps 469 mmHg 42%
    22:00 +11°C° 0 mm 3 mps 469 mmHg 46%
    23:00 +12°C° 0 mm 2 mps 469 mmHg 50%

    26 Enero, Sábado

    Tiempo Temperatura Precipitaciones Viento Presión Humedad
    00:00 +10°C° 0 mm 2 mps 469 mmHg 54%
    01:00 +11°C° 0 mm 1 mps 468 mmHg 58%
    02:00 +10°C° 0 mm 1 mps 468 mmHg 63%
    03:00 +9°C° 0 mm 0 mps 468 mmHg 63%
    04:00 +9°C° 0 mm 0 mps 468 mmHg 64%
    05:00 +9°C° 0 mm 0 mps 468 mmHg 65%
    06:00 +9°C° 0 mm 0 mps 468 mmHg 60%
    07:00 +11°C° 0 mm 1 mps 469 mmHg 55%
    08:00 +12°C° 0 mm 1 mps 470 mmHg 50%
    09:00 +13°C° 0 mm 2 mps 471 mmHg 43%
    10:00 +14°C° 0 mm 4 mps 471 mmHg 37%
    11:00 +15°C° 0 mm 5 mps 472 mmHg 30%
    12:00 +16°C° 0 mm 6 mps 472 mmHg 32%
    13:00 +16°C° 0 mm 7 mps 472 mmHg 33%
    14:00 +16°C° 0 mm 8 mps 472 mmHg 34%
    15:00 +15°C° 0.2 mm 9 mps 471 mmHg 39%
    16:00 +13°C° 0.2 mm 10 mps 470 mmHg 44%
    17:00 +12°C° 0.2 mm 10 mps 469 mmHg 49%
    18:00 +11°C° 0.3 mm 9 mps 469 mmHg 55%
    19:00 +10°C° 0.3 mm 7 mps 469 mmHg 61%
    20:00 +9°C° 0.3 mm 6 mps 469 mmHg 67%
    21:00 +9°C° 0.2 mm 5 mps 469 mmHg 70%
    22:00 +8°C° 0.2 mm 4 mps 469 mmHg 73%
    23:00 +9°C° 0.2 mm 3 mps 469 mmHg 76%
    Mostrar más